Location: Bailleul
(50.3375°N, 2.8513°E)
Time: 14:40:30
(UTC+00:00)

Cosmos 2123 Rocket - Pass Details

Date: 16 June 2021
Orbit: 961 x 992 km, 82.9° (Epoch: 29 July)

Event Time Altitude Azimuth Distance (km) Brightness Sun altitude
Exits shadow 21:34:05 10° 173° (S) 2,740 5.8 -10.4°
Reaches altitude 10° 21:34:06 10° 173° (S) 2,735 5.8 -10.4°
Maximum altitude 21:40:17 63° 94° (E) 1,097 4.1 -10.9°
Drops below altitude 10° 21:46:32 10° 15° (NNE) 2,767 7.1 -11.4°
Sets 21:49:05 0° 12° (NNE) 3,721 7.9 -11.6°
